Terug naar catalogus

ONEWEB-0563

ActiefCommunicatiePO
NORAD 55800·PAYLOAD·🇬🇧 United Kingdom

Gelanceerd Mar 9, 2023 vanaf Cape Canaveral Space Force Station

Loading…

Volgende Passages (komende 24 uur)

TLE

VersSource: CelesTrak SupGP

Epoch: Sep 14, 2026, 11:34 UTC

1 55800C 23029E   26257.48246946  .00002335  00000+0  57495-2 0  2570
2 55800  87.9129 256.6595 0002075  83.8024  26.1792 13.20768175    11

Volg ONEWEB-0563 in realtime met AllMySat

Download on the App Store